Total_Precipitation_Accumulation
0.00 0.00 0.01 0.01 0.01 0.02 0.02 0.05 0.12 0.19 0.13 0.13 0.23 0.43 0.50 0.55 0.63 0.80 0.95 0.93 1.00 1.13 1.47 1.87 2.32 2.83 3.48 4.30 5.17 5.42 5.03 4.34 3.68 3.10 2.54 2.14 1.83 1.65 1.61 1.38 1.16 1.08 1.05 1.02
0.01 0.02 0.02 0.02 0.02 0.04 0.05 0.07 0.12 0.16 0.11 0.13 0.20 0.41 0.60 0.71 0.83 0.82 0.87 0.94 0.92 1.13 1.51 1.95 2.48 2.91 3.28 3.77 4.47 4.62 4.15 3.43 2.69 2.20 1.98 1.80 1.60 1.35 1.20 1.11 1.04 0.86 0.85 0.87
0.01 0.03 0.02 0.02 0.02 0.05 0.07 0.08 0.12 0.14 0.07 0.12 0.20 0.49 0.77 0.89 0.75 0.61 0.53 0.64 0.68 0.84 1.32 1.98 2.49 2.80 3.07 3.24 3.19 3.21 2.92 2.34 1.92 1.67 1.53 1.40 1.34 1.22 1.03 0.90 0.79 0.65 0.61 0.62
0.01 0.02 0.01 0.02 0.03 0.04 0.07 0.05 0.05 0.05 0.06 0.20 0.29 0.76 1.00 0.89 0.75 0.60 0.46 0.43 0.47 0.65 1.08 1.84 2.14 2.20 2.29 2.35 2.12 2.06 2.02 1.79 1.60 1.44 1.26 1.07 0.87 0.84 0.76 0.70 0.65 0.58 0.53 0.52
0.02 0.02 0.02 0.02 0.03 0.04 0.05 0.04 0.04 0.07 0.11 0.25 0.43 0.73 1.01 0.84 0.78 0.59 0.42 0.37 0.42 0.53 0.80 1.14 1.20 1.30 1.41 1.47 1.45 1.52 1.69 1.69 1.56 1.46 1.38 1.25 0.97 0.81 0.73 0.70 0.68 0.61 0.58 0.53
0.04 0.04 0.03 0.03 0.02 0.03 0.04 0.05 0.11 0.23 0.34 0.66 0.67 0.73 1.04 0.88 0.68 0.45 0.33 0.34 0.29 0.36 0.53 0.72 0.76 0.79 0.84 0.85 0.94 1.12 1.46 1.58 1.51 1.41 1.34 1.19 1.02 0.89 0.76 0.67 0.60 0.55 0.55 0.57
0.10 0.08 0.08 0.06 0.05 0.06 0.05 0.09 0.26 0.60 1.00 1.12 0.69 0.71 0.99 0.63 0.42 0.31 0.23 0.21 0.25 0.35 0.45 0.58 0.70 0.70 0.65 0.63 0.68 0.83 1.02 1.13 1.16 1.21 1.24 1.17 1.10 0.97 0.82 0.69 0.55 0.49 0.49 0.48
0.14 0.15 0.11 0.07 0.05 0.06 0.07 0.09 0.18 0.36 0.46 0.57 0.58 0.96 1.07 0.54 0.35 0.23 0.15 0.14 0.18 0.25 0.31 0.35 0.43 0.43 0.44 0.50 0.52 0.58 0.71 0.80 0.87 0.95 1.02 1.01 0.99 0.92 0.80 0.75 0.59 0.49 0.47 0.50
0.06 0.06 0.04 0.04 0.06 0.06 0.06 0.06 0.07 0.08 0.14 0.35 0.64 0.86 0.74 0.46 0.29 0.17 0.12 0.10 0.10 0.12 0.14 0.16 0.16 0.18 0.23 0.33 0.45 0.52 0.59 0.64 0.70 0.76 0.85 0.87 0.86 0.86 0.85 0.79 0.67 0.56 0.58 0.58
0.03 0.03 0.03 0.04 0.05 0.07 0.07 0.06 0.06 0.05 0.15 0.33 0.57 0.85 0.84 0.54 0.34 0.17 0.11 0.09 0.08 0.08 0.07 0.09 0.11 0.11 0.12 0.16 0.31 0.45 0.51 0.59 0.68 0.71 0.71 0.71 0.81 0.80 0.80 0.76 0.68 0.65 0.62 0.60
0.02 0.02 0.02 0.03 0.05 0.07 0.06 0.06 0.06 0.06 0.08 0.19 0.43 0.63 0.50 0.35 0.20 0.14 0.10 0.07 0.08 0.09 0.07 0.07 0.08 0.08 0.10 0.12 0.20 0.31 0.40 0.48 0.54 0.57 0.61 0.71 0.77 0.75 0.72 0.73 0.68 0.67 0.63 0.63
0.03 0.02 0.02 0.06 0.07 0.07 0.06 0.06 0.07 0.09 0.09 0.13 0.24 0.32 0.23 0.23 0.19 0.16 0.12 0.10 0.13 0.12 0.09 0.10 0.09 0.07 0.08 0.11 0.14 0.22 0.26 0.28 0.31 0.37 0.45 0.55 0.67 0.67 0.67 0.69 0.72 0.71 0.67 0.60
0.03 0.02 0.04 0.14 0.20 0.15 0.08 0.06 0.09 0.10 0.10 0.12 0.27 0.39 0.24 0.19 0.22 0.24 0.17 0.15 0.16 0.13 0.12 0.13 0.12 0.07 0.07 0.09 0.13 0.18 0.20 0.24 0.25 0.29 0.34 0.44 0.55 0.62 0.65 0.66 0.67 0.65 0.65 0.63
0.05 0.04 0.05 0.16 0.22 0.22 0.17 0.13 0.12 0.12 0.12 0.11 0.18 0.34 0.27 0.21 0.25 0.22 0.16 0.20 0.19 0.15 0.15 0.16 0.18 0.12 0.09 0.11 0.15 0.19 0.21 0.24 0.26 0.29 0.35 0.41 0.48 0.58 0.65 0.67 0.68 0.67 0.70 0.70
0.06 0.06 0.05 0.05 0.10 0.16 0.18 0.15 0.13 0.10 0.10 0.12 0.14 0.22 0.28 0.34 0.28 0.19 0.22 0.28 0.20 0.17 0.17 0.16 0.17 0.15 0.13 0.14 0.17 0.18 0.21 0.24 0.28 0.32 0.37 0.40 0.46 0.53 0.59 0.65 0.69 0.74 0.76 0.74
0.09 0.08 0.07 0.06 0.10 0.12 0.13 0.16 0.12 0.08 0.07 0.08 0.10 0.19 0.28 0.30 0.35 0.30 0.23 0.23 0.23 0.22 0.21 0.23 0.26 0.22 0.20 0.19 0.19 0.18 0.23 0.31 0.39 0.47 0.49 0.48 0.52 0.57 0.58 0.62 0.66 0.75 0.80 0.85
0.16 0.16 0.16 0.15 0.15 0.15 0.16 0.15 0.11 0.09 0.10 0.11 0.12 0.18 0.25 0.33 0.37 0.38 0.36 0.29 0.29 0.34 0.34 0.41 0.47 0.38 0.29 0.25 0.25 0.26 0.31 0.38 0.46 0.54 0.65 0.68 0.69 0.72 0.72 0.73 0.76 0.82 0.95 1.01
0.25 0.26 0.23 0.21 0.24 0.27 0.18 0.14 0.12 0.11 0.13 0.14 0.18 0.25 0.30 0.39 0.45 0.50 0.56 0.52 0.44 0.40 0.39 0.42 0.44 0.47 0.45 0.42 0.40 0.42 0.46 0.51 0.63 0.75 0.85 0.92 0.97 1.03 1.07 1.11 1.06 1.07 1.14 1.21
0.27 0.36 0.34 0.32 0.37 0.31 0.24 0.21 0.20 0.21 0.24 0.26 0.34 0.48 0.53 0.56 0.64 0.67 0.58 0.48 0.42 0.41 0.40 0.48 0.50 0.50 0.51 0.59 0.60 0.57 0.58 0.64 0.80 0.95 1.06 1.12 1.17 1.25 1.30 1.26 1.30 1.38 1.46 1.48
0.32 0.34 0.42 0.39 0.44 0.45 0.40 0.35 0.34 0.41 0.62 0.54 0.59 0.62 0.57 0.57 0.75 0.69 0.50 0.44 0.40 0.39 0.42 0.50 0.57 0.57 0.61 0.73 0.73 0.72 0.77 0.84 0.89 0.93 1.02 1.20 1.38 1.49 1.47 1.46 1.56 1.70 1.81 1.78
0.54 0.55 0.50 0.46 0.48 0.44 0.43 0.41 0.46 0.77 0.97 0.79 0.74 0.71 0.65 0.72 0.75 0.70 0.55 0.42 0.35 0.34 0.40 0.45 0.51 0.55 0.56 0.64 0.74 0.89 1.01 1.04 1.05 1.11 1.19 1.30 1.47 1.61 1.64 1.69 1.73 1.82 1.92 1.92
0.74 0.75 0.73 0.68 0.77 0.74 0.50 0.54 0.78 0.95 0.76 0.71 0.79 0.87 0.86 0.82 0.69 0.55 0.46 0.40 0.32 0.31 0.33 0.38 0.46 0.52 0.56 0.66 0.80 0.96 1.12 1.21 1.28 1.37 1.50 1.55 1.62 1.61 1.58 1.71 1.81 1.87 1.95 1.91
0.83 0.85 0.85 0.87 0.92 0.82 0.66 0.71 0.68 0.66 0.71 0.74 0.77 0.90 0.90 0.80 0.76 0.59 0.49 0.42 0.34 0.32 0.31 0.36 0.41 0.48 0.56 0.67 0.83 1.05 1.13 1.22 1.29 1.39 1.47 1.59 1.64 1.67 1.66 1.71 1.77 1.88 1.93 1.90
0.81 0.76 0.82 0.93 0.93 0.85 0.78 0.76 0.67 0.61 0.63 0.66 0.69 0.73 0.75 0.71 0.73 0.68 0.57 0.45 0.39 0.34 0.31 0.34 0.40 0.47 0.55 0.57 0.65 0.78 0.87 0.96 1.05 1.12 1.19 1.25 1.35 1.45 1.59 1.74 1.74 1.74 1.80 1.87
0.79 0.72 0.78 0.99 1.08 1.11 1.01 0.88 0.80 0.73 0.73 0.77 0.77 0.74 0.72 0.62 0.60 0.61 0.55 0.44 0.39 0.34 0.31 0.35 0.41 0.44 0.48 0.53 0.54 0.59 0.68 0.85 0.95 0.97 1.01 1.10 1.21 1.32 1.47 1.62 1.69 1.63 1.63 1.72
0.87 0.79 0.76 0.92 0.97 1.12 1.17 1.02 0.89 0.81 0.85 0.86 0.84 0.76 0.69 0.59 0.51 0.42 0.38 0.32 0.31 0.29 0.32 0.37 0.42 0.43 0.44 0.49 0.52 0.54 0.64 0.80 0.91 0.94 0.93 0.96 1.02 1.13 1.26 1.38 1.44 1.34 1.17 1.16